#timestamp,LO_Frequency,Hit,StdDev 
1568570415.5,286046996.5,P
1568570435.3,286046999.6,N
1568570455.2,286046996.5,N
1568570475.0,286046996.5,N
1568570475.9,286046996.5,N
1568570495.8,286046996.8,N
1568570515.6,286046998.4,N
1568570535.4,286046999.6,N
1568570555.3,286046999.1,N
1568570575.1,286046998.9,N
1568570595.8,286046999.4,N
1568570615.7,286046998.8,N
1568570635.5,286046998.5,N
1568570655.4,286047001.1,N
1568570675.2,286047000.9,N
1568570695.0,286046998.4,N
1568570695.9,286046998.4,N
1568570715.8,286046999.1,N
1568570735.6,286046999.1,N
1568570755.5,286046998.8,N
1568570775.3,286046998.7,N
1568570795.1,286046998.2,N
1568570815.9,286046998.6,N
1568570835.7,286046998.5,N
1568570855.5,286047001.1,N
1568570875.4,286047001.2,N
1568570895.2,286047000.9,N
1568570915.1,286047000.2,N
1568570916.0,286047000.2,N
1568570935.8,286046999.8,N
1568570955.6,286047002.7,N
1568570975.5,286047000.3,N
1568570995.3,286046998.2,N
1568571015.1,286047000.7,N
1568571035.9,286046999.9,N
1568571055.7,286047000.6,N
1568571075.6,286047002.1,N
1568571095.4,286046998.2,N
1568571115.2,286046999.5,N
1568571135.1,286046997.8,N
1568571136.0,286046997.8,N
1568571155.8,286046996.9,N
1568571175.7,286046999.3,N
1568571195.5,286047001.1,N
1568571215.3,286047001.2,N
1568571235.2,286047000.8,N
1568571255.0,286046998.5,N
1568571255.9,286046998.5,N
1568571275.7,286046998.2,N
1568571295.6,286046998.5,N
1568571315.4,286047000.6,N
1568571335.3,286047000.0,N
1568571355.1,286047002.7,N
1568571356.0,286047002.7,N
1568571375.8,286047001.7,N
1568571395.7,286047004.3,N
1568571415.5,286047002.2,N
1568571435.4,286047004.1,N
1568571455.2,286047004.8,N
1568571475.0,286047003.2,N
1568571475.9,286047003.2,N
1568571495.8,286047001.8,N
1568571515.6,286047002.7,N
1568571535.4,286047002.3,N
1568571555.3,286047002.5,N
1568571575.1,286047002.5,N
1568571595.9,286047002.3,N
1568571615.7,286047002.4,N
1568571635.5,286046999.7,N
1568571655.4,286047000.1,N
1568571675.2,286047002.6,N
1568571695.1,286047000.3,N
1568571696.0,286047000.3,N
1568571715.8,286046998.2,N
1568571735.6,286046998.2,N
1568571755.5,286046998.3,N
1568571775.3,286046999.8,N
1568571795.1,286046998.3,N
1568571815.9,286046998.7,N
1568571835.7,286047001.1,N
1568571855.2,286047000.0,N
1568571875.9,286047001.1,N
1568571895.7,286046998.1,N
1568571915.6,286046998.2,N
1568571935.4,286047000.4,N
1568571955.2,286046998.3,N
1568571975.1,286046998.8,N
1568571976.0,286046998.8,N
1568571995.8,286046998.5,N
1568572015.7,286047000.5,N
1568572035.5,286046999.1,N
1568572055.3,286047000.4,N
1568572075.2,286047000.0,N
1568572095.0,286046998.9,N
1568572095.9,286046998.9,N
1568572115.8,286046999.1,N
1568572135.6,286046999.3,N
1568572155.4,286046998.3,N
1568572175.3,286047002.7,N
1568572195.1,286047002.8,N
1568572215.8,286047000.0,N
1568572235.7,286046998.5,N
1568572255.5,286047000.0,N
1568572275.4,286047000.0,N
1568572295.2,286047002.1,N
1568572315.0,286047001.3,N
1568572315.9,286047001.3,N
1568572335.8,286047001.4,N
1568572355.6,286046999.7,N
1568572375.5,286047002.5,N
1568572395.3,286047004.3,Y
1568572415.1,286047004.0,P
1568572435.9,286047002.1,N
1568572455.7,286047002.3,N
1568572475.6,286047002.5,N
1568572495.4,286047002.6,N
1568572515.2,286047002.5,N
1568572535.1,286047001.3,N
1568572536.0,286047001.3,N
1568572555.8,286046999.7,N
1568572575.6,286047000.3,N
1568572595.5,286047000.9,N
1568572615.3,286047000.1,N
1568572635.2,286047000.9,N
1568572655.9,286047002.7,N
1568572675.7,286046999.9,N
1568572695.6,286047001.0,N
1568572715.4,286047002.0,N
1568572735.3,286047001.5,N
1568572755.1,286047002.2,N
1568572756.0,286047002.2,N
1568572775.8,286047002.6,N
1568572795.7,286047004.3,Y
1568572815.5,286047002.3,P
1568572835.4,286047000.2,N
1568572855.2,286047000.2,N
1568572875.0,286047000.3,N
1568572875.9,286047000.3,N
1568572895.8,286047000.0,N
1568572915.6,286047000.2,N
1568572935.5,286047002.5,Y
1568572955.3,286047002.6,P
1568572975.1,286047002.5,N
1568572995.9,286047002.2,N
1568573015.7,286047001.6,N
1568573065.6,286047002.2,E
1568573075.5,286047000.0,N
1568573095.3,286046999.5,P
1568573115.2,286046998.9,P
1568573135.0,286047001.0,N
1568573135.9,286047001.0,N
1568573155.7,286047000.1,N
1568573175.6,286047002.3,Y
1568573195.4,286047001.8,P
1568573215.3,286047002.0,N
1568573235.1,286047002.0,N
1568573255.8,286047002.5,Y
1568573275.7,286047000.1,P
1568573295.5,286047002.5,P
1568573315.4,286047001.6,N
1568573335.2,286047002.5,N
1568573355.0,286047002.4,N
1568573355.9,286047002.4,N
1568573375.8,286047002.6,Y
1568573395.6,286047000.7,P
1568573415.5,286047001.0,N
1568573435.3,286047000.6,N
1568573455.1,286046999.0,N
1568573475.9,286046999.2,N
1568573495.7,286046998.7,N
1568573515.6,286047001.2,N
1568573535.4,286046998.1,N
1568573555.2,286047000.0,N
1568573575.1,286047001.1,N
1568573576.0,286047001.1,N
1568573595.8,286046998.2,N
1568573615.6,286046998.6,N
1568573635.5,286046998.4,N
1568573655.3,286046999.1,N
1568573675.2,286046999.1,N
1568573695.9,286046996.5,N
1568573715.7,286046999.1,N
1568573735.6,286046999.4,N
1568573755.4,286046999.3,N
1568573775.2,286046999.1,N
1568573795.1,286046996.6,N
1568573796.0,286046996.6,N
1568573815.8,286046999.6,N
1568573835.7,286046998.9,N
1568573855.5,286046996.5,N
1568573875.3,286046996.9,N
1568573895.2,286046996.6,N
1568573915.0,286046997.3,N
1568573915.9,286046997.3,N
1568573935.8,286046996.6,N
1568573985.6,286046997.3,E
1568573995.5,286046996.5,N
